Location: Drouwen
(52.9559°N, 6.7974°E)
Time: 11:15:57
(UTC+00:00)

Landsat 5 - Pass Details

Date: 15 May 2026
Orbit: 505 x 601 km, 98.1° (Epoch: 7 June)

Event Time Altitude Azimuth Distance (km) Brightness Sun altitude
Rises 23:40:42 0° 18° (NNE) 2,808 8.4 -17.9°
Reaches altitude 10° 23:42:58 10° 25° (NNE) 1,888 7.1 -17.9°
Maximum altitude 23:46:54 46° 99° (E) 759 3.9 -17.9°
Enters shadow 23:48:08 34° 147° (SSE) 925 4.0 -17.9°
